Hourly Data Report for October 19, 2016

All times are specified in Local Standard Time (LST). Add 1 hour to adjust for Daylight Saving Time where and when it is observed.

MONCTON INTL A
NEW BRUNSWICK

46°06'44.000" N
64°40'43.000" W
70.70 m
8103201
71705
YQM

Download Data

Hourly Data (October 2016)
Hourly Data Report for October 19, 2016
Temp Definition
°C
Dew Point Temp Definition
°C
Rel Hum Definition
%
Wind Dir Definition
10's deg

Wind Spd Definition
km/h
Visibility Definition
km
Stn Press Definition
kPa
Hmdx Definition


Wind Chill Definition


Weather Definition


TIME
00:00 Legend Double Dagger 13.5 10.7 83 17 36 24.1 99.92     LegendNANA
01:00 Legend Double Dagger 14.2 11.9 86 17 35 24.1 99.77     LegendNANA
02:00 Legend Double Dagger 15.9 13.4 85 19 27 24.1 99.73     Cloudy
03:00 Legend Double Dagger 16.4 14.4 88 19 23 16.1 99.62     Rain
04:00 Legend Double Dagger 16.4 15.4 94 20 24 16.1 99.59     Rain
05:00 Legend Double Dagger 16.4 15.4 94 21 21 12.9 99.54     Rain
06:00 Legend Double Dagger 16.5 15.2 92 22 21 24.1 99.59     LegendNANA
07:00 Legend Double Dagger 16.5 15.2 92 22 18 19.3 99.63     LegendNANA
08:00 Legend Double Dagger 16.4 15.1 92 22 19 19.3 99.70     Mostly Cloudy
09:00 Legend Double Dagger 16.8 15.3 91 24 21 24.1 99.74     LegendNANA
10:00 Legend Double Dagger 18.5 15.4 82 23 26 24.1 99.72     LegendNANA
11:00 Legend Double Dagger 19.8 14.7 72 22 31 24.1 99.76     Mainly Clear
12:00 Legend Double Dagger 20.2 11.3 56 26 35 24.1 99.78     LegendNANA
13:00 Legend Double Dagger 20.6 9.3 48 26 27 24.1 99.81     LegendNANA
14:00 Legend Double Dagger 20.4 9.5 49 24 31 24.1 99.85     Clear
15:00 Legend Double Dagger 19.8 8.9 49 28 30 24.1 99.89     LegendNANA
16:00 Legend Double Dagger 18.4 8.5 52 28 31 24.1 99.98     LegendNANA
17:00 Legend Double Dagger 16.7 8.0 56 28 28 24.1 100.12     Clear
18:00 Legend Double Dagger 14.6 7.7 63 27 18 24.1 100.28     LegendNANA
19:00 Legend Double Dagger 13.5 6.9 64 27 20 24.1 100.39     LegendNANA
20:00 Legend Double Dagger 12.9 6.5 65 26 25 24.1 100.51     Clear
21:00 Legend Double Dagger 11.6 6.2 69 26 19 24.1 100.65     LegendNANA
22:00 Legend Double Dagger 10.6 5.6 71 26 16 24.1 100.76     LegendNANA
23:00 Legend Double Dagger 9.4 5.8 78 27 16 24.1 100.86     Clear

Notes on Data Quality.

Legend

  • E = Estimated
  • M = Missing
  • NA = Not Available
  • ‡ = Partner data that is not subject to review by the National Climate Archives
Date modified: